Other Public Products
Issued by NWS Charleston, SC

Current Version | Previous Version | Text Only | Print | Product List | Glossary On
Versions: 1 2 3 4 5 6 7 8 9 10 11 12 13 14 15 16 17 18 19 20 21 22 23 24 25 26 27 28 29 30 31 32 33 34 35 36 37 38 39 40 41 42 43 44 45 46 47 48 49 50
388 FPUS82 KCHS 261512 OPUCHS TEST...KCHS/KSAV Gateway Observations...TEST National Weather Service Charleston SC 1100 AM EDT TUE SEP 26 2017 NOTE: "fair" indicates few or no clouds below 12,000 feet with no significant weather and/or obstructions to visibility. SCZ050-WAZ558-NCZ071-TXZ119-213-PAZ071-DCZ001-FLZ074-172-MI076- NYZ176-178-MAZ016-IL014-TNZ027-NJZ106-GAZ044-MD014-261600- ...Gateway Observations for Charleston International... CITY SKY/WX TMP DP RH WIND PRES REMARKS Chas Airport MOSUNNY 83 72 69 NW8 29.89S Seattle FOG 56 55 97 NE5 30.19S VSB 1/2 Charlotte PTSUNNY 78 67 68 N14 29.99F Dallas DFW PTSUNNY 81 71 71 S5 29.93R Dallas Love CLOUDY 80 70 71 S7 29.95R Philladelphia PTSUNNY 76 67 73 NE6 30.04F Wash National PTSUNNY 75 68 78 NE9 30.03S Baltimore PTSUNNY 75 68 78 E12 30.03S Miami CLOUDY 81 76 84 W5 29.92S Detroit MOSUNNY 80 66 62 VRB5 30.00F Newark CLOUDY 76 67 73 NE5 30.05F Laguardia PTSUNNY 73 69 87 NE5 30.05F J F K CLOUDY 75 67 76 E6 30.07S Boston Logan MOSUNNY 73 69 87 SE7 30.04S Ft. Lauderdale CLOUDY 88 77 69 NW6 29.89F HX 100 Chicago O`Hare CLOUDY 82 63 52 S7 29.95S Chicago Midway PTSUNNY 82 63 52 SW7 29.96S Houston Bush MOSUNNY 83 74 74 E8 29.91S Houston Hobby MOSUNNY 86 74 67 SE8 29.90S HX 94 Nashville SUNNY 80 68 66 CALM 30.04R Atlanta MOSUNNY 80 63 55 VRB7 30.02F $$ GAZ044-118-TXZ119-213-NCZ071-DCZ001-MDZ014-506-PAZ021-071-NJZ106- NYZ176-178-MAZ106-OHZ011-021-055-MIZ076-KYZ091-ILZ014-INZ047- MNZ060-ONZ431-261600- ...Gateway Observations for Savannah International... CITY SKY/WX TMP DP RH WIND PRES REMARKS Savannah Arpt MOSUNNY 83 68 60 NW12 29.94S Atlanta MOSUNNY 80 63 55 VRB7 30.02F Charlotte PTSUNNY 78 67 68 N14 29.99F Dallas DFW PTSUNNY 81 71 71 S5 29.93R Houston Bush MOSUNNY 83 74 74 E8 29.91S Wash National PTSUNNY 75 68 78 NE9 30.03S Wash Dulles PTSUNNY 78 66 66 NE10 30.02F Baltimore PTSUNNY 75 68 78 E12 30.03S Philadelphia PTSUNNY 76 67 73 NE6 30.04F Newark CLOUDY 76 67 73 NE5 30.05F Laguardia PTSUNNY 73 69 87 NE5 30.05F J F K CLOUDY 75 67 76 E6 30.07S Boston MOSUNNY 73 69 87 SE7 30.04S Pittsburg MOSUNNY 81 65 58 CALM 30.06F Akron MOSUNNY 83 62 49 SW5 30.06F Cleveland SUNNY 85 62 46 SW6 30.05S Cincinnati SUNNY 82 68 62 CALM 30.05S Columbus SUNNY 77 65 65 CALM 30.04F Detroit MOSUNNY 80 66 62 VRB5 30.00F Chicago O`Hare CLOUDY 82 63 52 S7 29.95S Minneapolis CLOUDY 60 58 92 W8 29.95R Indianapolis SUNNY 83 66 56 SW5 30.04R Toronto Canada MOSUNNY 82 68 61 SW6 29.99F $$

USA.gov is the U.S. government's official web portal to all federal, state and local government web resources and services.